Change the Weather History Date:

Sunday, April 7, 2013

  Actual Average Record
Temperature  
Mean Temperature 48 °F -  
Max Temperature 58 °F 59 °F 69 °F (2008)
Min Temperature 39 °F 39 °F 21 °F (2007)
Degree Days  
Heating Degree Days 16    
Moisture  
Dew Point 35 °F    
Average Humidity 50    
Maximum Humidity 70    
Minimum Humidity 21    
Precipitation  
Precipitation 0.00 in 0.10 in - ()
Sea Level Pressure  
Sea Level Pressure 29.83 in    
Wind  
Wind Speed 15 mph ()    
Max Wind Speed 30 mph    
Max Gust Speed 38 mph    
Visibility 14.9 miles    
Events      
Averages and records for this station are not official NWS values.
T = Trace of Precipitation, MM = Missing Value Source: Averaged Metar Reports

Daily Weather History Graph

Daily Weather History Graph

Search for Another Location

Airport or City:

Trip Planner

Search our weather history database for the weather conditions in past years. The results will help you decide how hot, cold, wet, or windy it might be!

Date:

Astronomy

Apr. 07, 2013 Rise Set
Actual Time 7:03 AM EDT 8:04 PM EDT
Civil Twilight 6:35 AM EDT 8:33 PM EDT
Nautical Twilight 6:01 AM EDT 9:07 PM EDT
Astronomical Twilight 5:25 AM EDT 9:43 PM EDT
Moon 5:23 AM EDT (4/7) 5:33 PM EDT (4/7)
Length of Visible Light 13h 58m
Length of Day
13h 00m
Waning Crescent, 8% of the Moon is Illuminated
Apr 7
Waning Crescent
Apr 10
New
Apr 18
First Quarter
Apr 25
Full
May 2
Last Quarter

Hourly Weather History & Observations

Time (EDT) Temp. Windchill Dew Point Humidity Pressure Visibility Wind Dir Wind Speed Gust Speed Precip Events Conditions
12:00 AM 48.2 °F - 24.8 °F 40% 29.83 in 15.0 mi South 12.7 mph - N/A   Overcast
1:00 AM 51.8 °F - 23.0 °F 33% 29.80 in 15.0 mi South 15.0 mph - N/A   Overcast
2:00 AM 54 °F - 26 °F 21% 29.76 in 15 mi South 16.1 mph - -   Overcast
2:00 AM 53.6 °F - 26.6 °F 35% 29.76 in 15.0 mi South 16.1 mph 24.2 mph N/A   Overcast
3:00 AM 55.4 °F - 30.2 °F 38% 29.71 in 15.0 mi SSW 17.3 mph - N/A   Overcast
4:00 AM 55.4 °F - 32.0 °F 41% 29.68 in 15.0 mi SSW 20.7 mph 28.8 mph N/A   Overcast
5:00 AM 55.4 °F - 33.8 °F 44% 29.66 in 15.0 mi SSW 20.7 mph 29.9 mph N/A   Mostly Cloudy
6:00 AM 53.6 °F - 37.4 °F 54% 29.65 in 15.0 mi SSW 13.8 mph - N/A   Mostly Cloudy
7:00 AM 53.6 °F - 39.2 °F 58% 29.65 in 15.0 mi SSW 17.3 mph 23.0 mph N/A   Partly Cloudy
8:00 AM 59 °F - 42 °F 42% 29.68 in 15 mi WSW 26.5 mph - -   Mostly Cloudy
8:00 AM 59.0 °F - 42.8 °F 55% 29.68 in 15.0 mi WSW 29.9 mph 38.0 mph N/A   Mostly Cloudy
9:00 AM 57.2 °F - 44.6 °F 63% 29.70 in 15.0 mi WSW 24.2 mph 31.1 mph N/A   Mostly Cloudy
10:00 AM 57.2 °F - 44.6 °F 63% 29.73 in 15.0 mi West 19.6 mph 33.4 mph N/A   Mostly Cloudy
11:00 AM 57.2 °F - 42.8 °F 59% 29.77 in 15.0 mi West 21.9 mph 28.8 mph N/A   Mostly Cloudy
1:00 PM 55.4 °F - 39.2 °F 54% 29.83 in 12.0 mi WNW 16.1 mph 29.9 mph N/A   Mostly Cloudy
2:00 PM 55 °F - 39 °F 43% 29.87 in 15 mi WNW 18.4 mph - -   Mostly Cloudy
2:00 PM 55.4 °F - 39.2 °F 54% 29.87 in 15.0 mi WNW 17.3 mph - N/A   Mostly Cloudy
3:00 PM 55.4 °F - 37.4 °F 51% 29.90 in 15.0 mi WNW 16.1 mph 23.0 mph N/A   Mostly Cloudy
4:00 PM 55.4 °F - 37.4 °F 51% 29.92 in 15.0 mi West 16.1 mph 23.0 mph N/A   Mostly Cloudy
5:00 PM 53.6 °F - 35.6 °F 51% 29.94 in 15.0 mi NW 17.3 mph 24.2 mph N/A   Mostly Cloudy
6:00 PM 53.6 °F - 35.6 °F 51% 29.96 in 15.0 mi NW 12.7 mph 19.6 mph N/A   Partly Cloudy
7:00 PM 51.8 °F - 33.8 °F 50% 29.98 in 15.0 mi NW 10.4 mph - N/A   Partly Cloudy
8:00 PM 49 °F - 33 °F 43% 29.99 in 15 mi North 6.9 mph - -   Clear
8:00 PM 48.2 °F - 33.8 °F 58% 29.99 in 15.0 mi North 6.9 mph - N/A   Mostly Cloudy
9:00 PM 44.6 °F 39.7 °F 32.0 °F 61% 30.01 in 15.0 mi NNE 9.2 mph - N/A   Scattered Clouds
10:00 PM 44.6 °F 40.7 °F 32.0 °F 61% 30.03 in 15.0 mi NNE 6.9 mph - N/A   Overcast
11:00 PM 41.0 °F 36.4 °F 32.0 °F 70% 30.04 in 15.0 mi NE 6.9 mph - N/A   Overcast